[[{"header":{"parameterUnit":"m.s-1","parameterCategory":1,"la1":30.2991,"la2":30.254,"lo1":-89.0895,"lo2":-89.0444,"dx":0.0017,"dy":0.0017,"nx":28,"ny":28,"refTime":"2022-11-16T15:00:00:Z","depth":0,"parameterNumber":2,"parameterNumberName":"U-component_of_WINDS"},"data":[0,0,0,0,0,0,0,0,0,0,0,0,0,0,0,0,0,0,0,0,0,0,0,0,0,0,0,0,0,0,0,0,0,0,0,0,0,0,0,0,0,0,0,0,0,0,0,0,0,0,0,0,0,0,0,0,0,0,0.7627,0.7627,0,0.7621,0.7621,0.7621,0.7633,0.7633,0.7634,0.7634,0.7626,0.7625,0.7624,0,0,0,0,0,0,0,0,0,0,0,0,0,0.7649,0.7648,0.7627,0.7627,0.7627,0.7621,0.7621,0.7621,0.7633,0.7633,0.7634,0.7634,0.7626,0.7625,0.7624,0,0,0,0,0,0,0,0,0,0,0,0,0,0.7641,0.7648,0.7627,0.7632,0.7633,0.7621,0.7621,0.7621,0.7633,0.7633,0.7634,0.7634,0.7626,0.7625,0.7624,0.7607,0,0,0.7622,0.7621,0,0,0,0,0,0,0,0,0.7641,0.764,0.7632,0.7632,0.7633,0.7628,0.7625,0.7616,0.7632,0.7633,0.7634,0.7635,0.7626,0.7625,0.7623,0.7606,0.7606,0.7621,0.7621,0.7621,0.762,0,0,0,0,0,0,0,0.7642,0.764,0.7625,0.7632,0.7632,0.7635,0.7634,0.7624,0.7626,0.7633,0.7634,0.7633,0.7626,0.7623,0.7622,0.7606,0.7622,0.7621,0.762,0.762,0.7575,0.7574,0,0,0,0,0,0,0.7642,0.764,0.7625,0.7625,0.7638,0.7634,0.7633,0.7629,0.7626,0.7626,0.7632,0.7633,0.7625,0.7623,0.7622,0.7601,0.7621,0.762,0.7619,0.7575,0.7575,0.7574,0,0,0,0,0,0,0.7642,0.764,0.7625,0.7633,0.7631,0.7633,0.7628,0.7629,0.7626,0.7626,0.7626,0.7629,0.7625,0.7623,0.7611,0.7601,0.7619,0.7619,0.7576,0.7575,0.7574,0.7559,0,0,0,0,0,0,0.7643,0.764,0.7634,0.7633,0.7631,0.7614,0.7627,0.7628,0.7624,0.7626,0.7623,0.7623,0.7625,0.7612,0.761,0.76,0.7618,0.7577,0.7576,0.7575,0.756,0.7557,0.7555,0,0,0,0,0,0.7643,0.7629,0.7633,0.7631,0.7623,0.7614,0.7612,0.7616,0.7624,0.7617,0.7617,0.7623,0.7603,0.761,0.7608,0.7598,0.7578,0.7576,0.7575,0.7561,0.7558,0.7555,0,0,0,0,0,0,0.7628,0.7629,0.7634,0.7619,0.7616,0.7616,0.7607,0.7612,0.7607,0.7608,0.7613,0.7612,0.7598,0.7597,0.7606,0.7581,0.7591,0.7589,0.7582,0.7579,0.7576,0.7576,0.7617,0,0,0,0,0,0.7624,0.7617,0.7617,0.7604,0.7603,0.7605,0.7601,0.7605,0.7602,0.76,0.7599,0.7596,0.7589,0.7584,0.7577,0.756,0.756,0.7552,0.755,0.7548,0.7545,0.7536,0.7533,0.7569,0.7569,0.7569,0,0,0.7613,0.7613,0.7608,0.7601,0.76,0.7592,0.7604,0.7595,0.7589,0.7599,0.7586,0.7586,0.7582,0.7567,0.7561,0.7566,0.7535,0.7546,0.7544,0.7543,0.7534,0.7531,0.7528,0.7568,0.7568,0.7568,0,0,0.759,0.7589,0.7578,0.7576,0.7574,0.7576,0.7573,0.7572,0.7572,0.756,0.7567,0.756,0.7548,0.7545,0.7541,0.7518,0.7523,0.7516,0.7502,0.7493,0.749,0.7487,0.7478,0.7475,0.7514,0.7514,0.7514,0,0.7577,0.7566,0.7571,0.7562,0.7559,0.7568,0.7557,0.7555,0.755,0.7547,0.7553,0.7538,0.7536,0.7521,0.7515,0.7513,0.7509,0.7516,0.749,0.7487,0.7485,0.7476,0.7473,0.7513,0.7513,0.7513,0.7513,0,0.755,0.7542,0.7533,0.7529,0.7525,0.7514,0.7518,0.7513,0.7517,0.7518,0.7506,0.7505,0.7498,0.7495,0.7498,0.7479,0.7482,0.7489,0.75,0.7481,0.7472,0.7469,0.7512,0.7512,0.7512,0.7513,0,0,0.7515,0.7515,0.7512,0.751,0.7508,0.7502,0.7492,0.7486,0.7482,0.7479,0.747,0.746,0.7466,0.7463,0.7466,0.7458,0.7439,0.7466,0.7466,0.746,0.7417,0.7411,0.7407,0.7443,0.7442,0.7442,0.7417,0,0.7491,0.7475,0.748,0.7463,0.7455,0.7465,0.7456,0.7454,0.7455,0.7449,0.745,0.7442,0.7452,0.745,0.7442,0.7443,0.743,0.7445,0.7434,0.7433,0.7433,0.7403,0.7397,0.7374,0.7414,0.7414,0.7413,0,0.7461,0.7457,0.7439,0.7439,0.7436,0.7429,0.7424,0.7418,0.7415,0.7417,0.7413,0.7419,0.7408,0.742,0.7406,0.7416,0.7412,0.7411,0.7411,0.7409,0.7421,0.7399,0.7366,0.7362,0.7409,0.7409,0.7409,0,0.7437,0.7427,0.7415,0.7414,0.7413,0.7408,0.7407,0.7406,0.7402,0.7397,0.7395,0.7389,0.7386,0.7381,0.7385,0.7393,0.737,0.7382,0.737,0.737,0.7363,0.7363,0.7328,0.7363,0.7363,0.7363,0.7363,0,0.7409,0.7397,0.7404,0.7397,0.7384,0.7391,0.7378,0.7378,0.7377,0.737,0.7378,0.737,0.7376,0.7369,0.7372,0.7359,0.7358,0.7358,0.7359,0.7357,0.7356,0.7353,0.7354,0.7362,0.7362,0.7362,0.7362,0,0.7379,0.7383,0.7371,0.7372,0.7372,0.7362,0.7363,0.7356,0.7358,0.7349,0.7347,0.735,0.7342,0.7346,0.7338,0.734,0.7323,0.7326,0.7324,0.7324,0.7311,0.7312,0.7272,0.7266,0.7306,0.7305,0.7305,0,0.736,0.7351,0.7352,0.7348,0.7347,0.734,0.7337,0.7343,0.7339,0.7336,0.7329,0.7322,0.7317,0.7304,0.7305,0.7299,0.7302,0.7288,0.7301,0.7299,0.73,0.73,0.7299,0.7285,0.7284,0.7284,0.7284,0,0.7326,0.7329,0.7323,0.7319,0.7314,0.7311,0.7308,0.7304,0.7311,0.7305,0.7298,0.7294,0.7286,0.7279,0.7274,0.7273,0.7279,0.728,0.7277,0.7274,0.7272,0.7272,0.7315,0.7281,0.7281,0.7281,0.7281,0.7281,0.73,0.7293,0.7292,0.7286,0.7285,0.7282,0.7276,0.7278,0.7272,0.7266,0.727,0.7261,0.726,0.7253,0.7252,0.7244,0.725,0.7245,0.7244,0.7242,0.724,0.7275,0.7244,0.7244,0.7244,0.7244,0.7244,0,0.7265,0.7266,0.726,0.7256,0.7252,0.7259,0.7257,0.7252,0.7244,0.7242,0.7237,0.7229,0.7222,0.7223,0.7217,0.7211,0.7214,0.7209,0.7209,0.7209,0.7236,0.7239,0.7207,0.7207,0.7207,0.7207,0.7207,0.7207,0.7247,0.7235,0.7238,0.7225,0.7226,0.7217,0.7215,0.7213,0.7211,0.7202,0.7196,0.7198,0.7197,0.7191,0.7185,0.7186,0.7182,0.7176,0.7178,0.7203,0.7207,0.721,0.7213,0.7176,0.7176,0.7151,0.7151,0.715]},{"header":{"parameterUnit":"m.s-1","parameterCategory":1,"la1":30.2991,"la2":30.254,"lo1":-89.0895,"lo2":-89.0444,"dx":0.0017,"dy":0.0017,"nx":28,"ny":28,"refTime":"2022-11-16T15:00:00:Z","depth":0,"parameterNumber":3,"parameterNumberName":"V-component_of_WINDS"},"data":[0,0,0,0,0,0,0,0,0,0,0,0,0,0,0,0,0,0,0,0,0,0,0,0,0,0,0,0,0,0,0,0,0,0,0,0,0,0,0,0,0,0,0,0,0,0,0,0,0,0,0,0,0,0,0,0,0,0,-5.0475,-5.0476,0,-5.0535,-5.0536,-5.0537,-5.0503,-5.0501,-5.05,-5.0498,-5.0556,-5.0559,-5.0563,0,0,0,0,0,0,0,0,0,0,0,0,0,-5.0328,-5.0331,-5.0475,-5.0476,-5.0477,-5.0535,-5.0536,-5.0537,-5.0503,-5.0501,-5.0499,-5.0497,-5.0555,-5.0559,-5.0563,0,0,0,0,0,0,0,0,0,0,0,0,0,-5.039,-5.0332,-5.0475,-5.0467,-5.0467,-5.0535,-5.0536,-5.0537,-5.0504,-5.0501,-5.0499,-5.0496,-5.0554,-5.0559,-5.0563,-5.0642,0,0,-5.0578,-5.058,0,0,0,0,0,0,0,0,-5.0387,-5.0396,-5.0467,-5.0468,-5.0468,-5.0509,-5.0506,-5.0572,-5.0504,-5.049,-5.0498,-5.0495,-5.0542,-5.0548,-5.0565,-5.0645,-5.0647,-5.0578,-5.0581,-5.0583,-5.0584,0,0,0,0,0,0,0,-5.0382,-5.0393,-5.0499,-5.0468,-5.0469,-5.0459,-5.0465,-5.0518,-5.0529,-5.0491,-5.0488,-5.0496,-5.0542,-5.056,-5.0566,-5.0648,-5.0578,-5.0582,-5.0585,-5.0587,-5.0796,-5.0799,0,0,0,0,0,0,-5.0379,-5.039,-5.0497,-5.0501,-5.042,-5.0464,-5.0471,-5.0498,-5.0528,-5.0531,-5.0498,-5.0494,-5.0553,-5.056,-5.0568,-5.0662,-5.0583,-5.0587,-5.059,-5.0793,-5.0797,-5.08,0,0,0,0,0,0,-5.0376,-5.0389,-5.0494,-5.0445,-5.0457,-5.0469,-5.05,-5.0501,-5.0519,-5.0534,-5.0536,-5.0515,-5.0552,-5.0561,-5.0624,-5.0664,-5.0589,-5.0593,-5.079,-5.0794,-5.0798,-5.0852,0,0,0,0,0,0,-5.0372,-5.0388,-5.0419,-5.0445,-5.046,-5.0551,-5.0503,-5.0504,-5.0527,-5.0523,-5.055,-5.0552,-5.0551,-5.0617,-5.0629,-5.0669,-5.0597,-5.0786,-5.0792,-5.0797,-5.0846,-5.0857,-5.0866,0,0,0,0,0,-5.0367,-5.0431,-5.0421,-5.0434,-5.0499,-5.0553,-5.0561,-5.0559,-5.0531,-5.0561,-5.0571,-5.0552,-5.0658,-5.0624,-5.0637,-5.0679,-5.0784,-5.079,-5.0796,-5.0842,-5.0855,-5.0866,0,0,0,0,0,0,-5.0407,-5.0434,-5.0423,-5.0497,-5.0524,-5.0547,-5.0586,-5.0573,-5.0606,-5.0601,-5.0595,-5.0601,-5.0667,-5.0679,-5.0641,-5.0756,-5.0716,-5.0725,-5.0746,-5.0759,-5.0769,-5.0765,-5.0601,0,0,0,0,0,-5.0425,-5.0468,-5.0488,-5.0552,-5.0566,-5.0574,-5.0597,-5.0593,-5.0619,-5.063,-5.0644,-5.067,-5.0709,-5.0734,-5.0771,-5.0848,-5.0853,-5.0883,-5.0893,-5.0901,-5.0909,-5.0951,-5.0964,-5.082,-5.082,-5.082,0,0,-5.0461,-5.0481,-5.0508,-5.0561,-5.058,-5.0624,-5.0583,-5.0631,-5.0663,-5.0637,-5.0698,-5.0709,-5.0737,-5.0807,-5.0839,-5.0819,-5.095,-5.0909,-5.0915,-5.0919,-5.0958,-5.0972,-5.0984,-5.0824,-5.0823,-5.0823,0,0,-5.055,-5.057,-5.0626,-5.0646,-5.0677,-5.0682,-5.0696,-5.0722,-5.0729,-5.079,-5.0771,-5.0809,-5.0876,-5.0897,-5.0917,-5.1015,-5.0998,-5.1026,-5.1078,-5.1119,-5.1131,-5.1141,-5.1176,-5.1189,-5.1034,-5.1034,-5.1034,0,-5.0592,-5.0658,-5.0655,-5.0706,-5.0729,-5.0708,-5.0764,-5.0784,-5.0825,-5.0841,-5.0818,-5.0903,-5.092,-5.0995,-5.102,-5.1036,-5.105,-5.1023,-5.1129,-5.1139,-5.1149,-5.1182,-5.1196,-5.1038,-5.1037,-5.1037,-5.1037,0,-5.0708,-5.0754,-5.0795,-5.0837,-5.0864,-5.0917,-5.0921,-5.095,-5.0944,-5.0951,-5.1013,-5.1033,-5.1074,-5.1091,-5.1085,-5.1166,-5.1153,-5.113,-5.1089,-5.1166,-5.1197,-5.121,-5.1042,-5.1041,-5.104,-5.1039,0,0,-5.0823,-5.0864,-5.0879,-5.0898,-5.093,-5.0966,-5.1017,-5.1058,-5.1083,-5.1111,-5.1154,-5.1212,-5.1192,-5.1214,-5.1209,-5.1245,-5.1322,-5.1218,-5.1219,-5.1237,-5.1413,-5.143,-5.1445,-5.1311,-5.1314,-5.1315,-5.1411,0,-5.0915,-5.1007,-5.1006,-5.109,-5.1133,-5.1114,-5.1159,-5.1184,-5.1192,-5.1228,-5.1237,-5.1278,-5.1248,-5.1261,-5.1296,-5.1305,-5.1357,-5.1298,-5.135,-5.1352,-5.1345,-5.1461,-5.148,-5.1568,-5.1423,-5.1425,-5.1426,0,-5.1034,-5.1069,-5.1158,-5.1185,-5.1203,-5.1244,-5.1281,-5.1317,-5.1344,-5.1347,-5.1373,-5.1363,-5.1415,-5.1373,-5.1444,-5.1404,-5.1425,-5.1433,-5.1436,-5.1441,-5.1394,-5.147,-5.1597,-5.161,-5.1446,-5.1444,-5.1443,0,-5.1111,-5.1179,-5.1241,-5.1258,-5.1291,-5.132,-5.1335,-5.136,-5.1385,-5.1418,-5.1434,-5.1471,-5.1492,-5.1521,-5.1522,-5.1491,-5.1594,-5.1551,-5.1597,-5.1598,-5.162,-5.1619,-5.1752,-5.1633,-5.1633,-5.1633,-5.1632,0,-5.1214,-5.1269,-5.1276,-5.1315,-5.1376,-5.1374,-5.1434,-5.1446,-5.1469,-5.1509,-5.1494,-5.1531,-5.153,-5.1568,-5.1568,-5.1627,-5.1636,-5.164,-5.164,-5.1642,-5.1641,-5.1656,-5.165,-5.1636,-5.1635,-5.1635,-5.1634,0,-5.1309,-5.1316,-5.1383,-5.141,-5.1417,-5.1461,-5.1483,-5.152,-5.1527,-5.1577,-5.1589,-5.16,-5.1643,-5.1647,-5.1697,-5.1697,-5.1769,-5.1761,-5.176,-5.1759,-5.1805,-5.1801,-5.1953,-5.1973,-5.184,-5.1842,-5.1843,0,-5.1374,-5.1417,-5.1448,-5.1474,-5.1492,-5.1534,-5.156,-5.1559,-5.1587,-5.1621,-5.1653,-5.1696,-5.173,-5.1801,-5.1812,-5.1851,-5.1844,-5.1895,-5.185,-5.1851,-5.1845,-5.1843,-5.1847,-5.1904,-5.1905,-5.1906,-5.1907,0,-5.149,-5.1491,-5.153,-5.157,-5.1602,-5.1633,-5.1662,-5.1684,-5.1687,-5.1718,-5.1764,-5.179,-5.1842,-5.1885,-5.1923,-5.1937,-5.1923,-5.1922,-5.1934,-5.1937,-5.1935,-5.1937,-5.1785,-5.1918,-5.1917,-5.1916,-5.1916,-5.1915,-5.1572,-5.1609,-5.1638,-5.1681,-5.1703,-5.1731,-5.1767,-5.1779,-5.1817,-5.186,-5.1857,-5.1908,-5.1934,-5.1983,-5.2,-5.2039,-5.2022,-5.204,-5.2045,-5.205,-5.2055,-5.1929,-5.2046,-5.2045,-5.2045,-5.2045,-5.2045,0,-5.1687,-5.1705,-5.1745,-5.1787,-5.1821,-5.1806,-5.1837,-5.1867,-5.1911,-5.1938,-5.1972,-5.2024,-5.2066,-5.2081,-5.2121,-5.2149,-5.2144,-5.2159,-5.2158,-5.2161,-5.2067,-5.2053,-5.2163,-5.2163,-5.2163,-5.2163,-5.2163,-5.2163,-5.1751,-5.1813,-5.1818,-5.1891,-5.1908,-5.1958,-5.1977,-5.2003,-5.2024,-5.2083,-5.2118,-5.2128,-5.215,-5.2192,-5.2229,-5.2232,-5.2248,-5.2267,-5.2267,-5.2179,-5.2168,-5.2156,-5.2142,-5.227,-5.227,-5.2358,-5.2358,-5.2359]}]]